User: anonymous   Login
Location: Slidell
(30.2789°N, 89.7378°W)
Time: 22:20:27
(UTC-06:00)
Language:

Cosmos 2360 Rocket - Orbit

View from above orbital plane
View from above orbital plane
View from above satellite
View from above satellite

Ground track
Ground track

The orbit data is extracted from the following two-line orbital elements,

1 25407U 98045B   14351.49663087 -.00000216  00000-0 -85977-4 0  6393
2 25407 071.0112 159.3148 0006808 176.2065 215.3712 14.15690360847018
Epoch (UTC): 17 December 2014 11:55:08
Eccentricity: 0.0006808
inclination: 71.0112°
perigee height: 835 km
apogee height: 845 km
right ascension of ascending node: 159.3148°
argument of perigee: 176.2065°
revolutions per day: 14.15690360
mean anomaly at epoch: 215.3712°
orbit number at epoch: 84701

The dashed part of the orbit path shows where the satellite is in the earth's shadow,  

DLR